Location: Chandrammap?lem
(16.9200°N, 81.0051°E)
Time: 10:21:24
(UTC+00:00)

Cosmos 2237 Rocket - Pass Details

Date: 29 May 2024
Orbit: 833 x 850 km, 71.0° (Epoch: 14 June)

Event Time Altitude Azimuth Distance (km) Brightness Sun altitude
Rises 22:57:14 0° 338° (NNW) 3,394 5.4 -14.7°
Reaches altitude 10° 22:59:42 10° 335° (NNW) 2,456 4.7 -14.2°
Maximum altitude 23:05:15 63° 255° (WSW) 932 2.2 -13.0°
Drops below altitude 10° 23:10:47 10° 175° (S) 2,441 4.4 -11.9°
Sets 23:13:14 0° 172° (S) 3,372 5.1 -11.4°
